Location: Vancouver
(49.2500°N, 123.1330°W)
Time: 15:49:32
(UTC-08:00)

S-56A Canister/Altair - Visible Passes

Search period start: 19 February 2018 00:00
Search period end: 01 March 2018 00:00
Orbit: 633 x 2500 km, 38.9° (Epoch: 19 February)

Date Brightness Start Highest point End Pass type
(mag) Time Alt. Az. Time Alt. Az. Time Alt. Az.
19 Feb 11.3 00:41:04 15° E 00:41:04 15° E 00:43:08 10° E visible
19 Feb 10.1 02:38:29 48° SE 02:38:29 48° SE 02:49:52 10° ESE visible
19 Feb 10.1 04:35:54 37° WSW 04:41:05 49° SSW 04:55:12 10° SE visible
19 Feb 10.8 06:34:17 10° W 06:45:55 31° SW 06:57:43 10° SSE visible
20 Feb 10.4 02:07:34 38° ESE 02:07:34 38° ESE 02:16:22 10° E visible
20 Feb 9.9 04:04:59 46° SW 04:07:49 51° SSW 04:22:02 10° SE visible
20 Feb 10.7 06:02:24 14° W 06:12:48 33° SSW 06:25:07 10° SSE visible
21 Feb 10.8 01:36:41 28° ESE 01:36:41 28° ESE 01:42:50 10° E visible
21 Feb 9.9 03:34:06 51° SSW 03:34:35 51° S 03:48:47 10° ESE visible
21 Feb 10.5 05:31:32 20° WSW 05:39:39 35° SSW 05:52:23 10° SSE visible
22 Feb 11.1 01:05:51 19° ESE 01:05:51 19° ESE 01:09:16 10° E visible
22 Feb 10.0 03:03:17 49° SSE 03:03:17 49° SSE 03:15:26 10° ESE visible
22 Feb 10.3 05:00:43 27° WSW 05:06:29 37° SSW 05:19:31 10° SSE visible
23 Feb 11.4 00:35:05 12° E 00:35:05 12° E 00:35:41 10° E visible
23 Feb 10.3 02:32:31 41° SE 02:32:31 41° SE 02:42:02 10° ESE visible
23 Feb 10.1 04:29:58 35° SW 04:33:19 39° SSW 04:46:33 10° SE visible
23 Feb 11.0 06:28:58 10° W 06:37:35 19° SW 06:46:36 10° S visible
24 Feb 10.6 02:01:50 31° SE 02:01:50 31° SE 02:08:34 10° ESE visible
24 Feb 10.0 03:59:16 40° SSW 04:00:10 41° SSW 04:13:29 10° SE visible
24 Feb 10.8 05:56:43 12° WSW 06:04:35 21° SW 06:14:23 10° S visible
25 Feb 11.0 01:31:13 21° ESE 01:31:13 21° ESE 01:35:05 10° ESE visible
25 Feb 10.1 03:28:39 41° S 03:28:39 41° S 03:40:18 10° SE visible
25 Feb 10.6 05:26:07 18° WSW 05:31:34 23° SW 05:41:58 10° S visible
26 Feb 11.4 01:00:40 12° ESE 01:00:40 12° ESE 01:01:33 10° ESE visible
26 Feb 10.4 02:58:08 35° SSE 02:58:08 35° SSE 03:07:03 10° SE visible
26 Feb 10.5 04:55:35 23° SW 04:58:33 25° SW 05:09:22 10° S visible
27 Feb 10.7 02:27:41 27° SE 02:27:41 27° SE 02:33:43 10° SE visible
27 Feb 10.4 04:25:09 27° SW 04:25:32 27° SSW 04:36:37 10° SSE visible
28 Feb 11.1 01:57:19 18° SE 01:57:19 18° SE 02:00:21 10° SE visible
28 Feb 10.5 03:54:47 27° SSW 03:54:47 27° SSW 04:03:45 10° SSE visible
